Regional Weather Roundup
Issued by NWS Charleston, SC

Current Version | Previous Version | Graphics & Text | Print | Product List | Glossary On
Versions: 1 2 3 4 5 6 7 8 9 10 11 12 13 14 15 16 17 18 19 20 21 22 23 24 25 26 27 28 29 30 31 32 33 34 35 36 37 38 39 40 41 42 43 44 45 46 47 48 49 50
000 ASUS42 KCHS 280428 RWRCHS REGIONAL WEATHER ROUNDUP NATIONAL WEATHER SERVICE CHARLESTON SC 1200 AM EDT SAT MAY 28 2016 NOTE: "FAIR" INDICATES FEW OR NO CLOUDS BELOW 12,000 FEET WITH NO SIGNIFICANT WEATHER AND/OR OBSTRUCTIONS TO VISIBILITY. NOT ALL STATIONS ARE QUALITY CONTROLLED. USE DATA WITH CAUTION... ESPECIALLY DEWPOINT OBSERVATIONS. SCZ027-030-031-034>040-042>050-280500- ...SOUTHEAST SOUTH CAROLINA... CITY SKY/WX TMP DP RH WIND PRES REMARKS N CHARLESTON MOCLDY 74 64 71 E5 30.10S WATERFRONT PRK N/A 76 68 76 E7 30.07S MOUNT PLEASANT MOCLDY 73 66 78 CALM 30.10S JOHNS ISLAND CLOUDY 75 68 78 NE7 30.09S PINOPOLIS N/A 75 64 69 E5 30.02S MONCKS CORNER MOCLDY 64 59 82 CALM 30.11S SUMMERVILLE FAIR 66 66 100 CALM 30.11S BEAUFORT MCAS CLEAR 70 66 87 N5 30.10R BEAUFORT ARPT FAIR 72 66 83 NE5 30.09S HILTON HEAD IS CLEAR 73 68 83 VRB5 30.09F WALTERBORO CLEAR 64 64 100 CALM 30.11F ALLENDALE FAIR 66 63 88 CALM 30.10S ...SOUTHERN MIDLANDS AND PEE DEE... CITY SKY/WX TMP DP RH WIND PRES REMARKS GEORGETOWN MOCLDY 72 66 83 NE3 30.12S KINGSTREE FAIR 63 57 82 SW3 30.12S ORANGEBURG CLEAR 67 60 78 CALM 30.12R BARNWELL FAIR 72 66 83 CALM 30.12S AIKEN FAIR 66 59 77 SE3 30.16R MANNING FAIR 63 59 88 CALM 30.12S COLUMBIA CLEAR 72 56 57 CALM 30.11R SUMTER CLEAR 68 57 66 S2 30.11R FLORENCE CLEAR 67 58 72 CALM 30.13S MYRTLE BEACH PTCLDY 73 63 68 E9 30.13F N MYRTLE BEACH PTCLDY 75 66 73 E7 30.12S $$ GAZ063-065-086>088-099>101-113>116-118-119-134>141-150-280500- ...SOUTHEAST GEORGIA... CITY SKY/WX TMP DP RH WIND PRES REMARKS SAVANNAH ARPT CLEAR 70 65 84 NE5 30.09S HUNTER AAF CLEAR 72 69 89 N2 30.07R FORT STEWART CLEAR 67 64 89 CALM 30.07R STATESBORO CLEAR 66 65 94 CALM 30.10S SYLVANIA PTCLDY 69 65 86 SE3 30.11S CLAXTON FAIR 66 65 96 CALM 30.10S ...CSRA...CENTRAL AND FAR SOUTHEAST GEORGIA... CITY SKY/WX TMP DP RH WIND PRES REMARKS THOMSON CLEAR 71 63 76 CALM 30.16R AUGUSTA-BUSH CLEAR 67 61 81 CALM 30.10R AUGUSTA-DANIEL CLEAR 73 60 63 SE6 30.12R SWAINSBORO FAIR 70 63 78 SE3 30.11S VIDALIA CLEAR 70 63 78 E3 30.10R EASTMAN FAIR 71 64 77 CALM 30.12R HAZLEHURST FAIR 73 66 80 CALM 30.07F ALMA CLEAR 68 65 90 CALM 30.07S WAYCROSS CLEAR 70 67 89 E6 30.07S JESUP FAIR 64 63 94 CALM 30.08S BAXLEY FAIR 70 68 94 E3 30.08S BRUNSWICK CLEAR 73 70 88 E6 30.07F SAINT SIMONS PTCLDY 75 70 84 NE9 30.06S $$ SCZ027-028-034-036>038-045-046-048>050-GAZ119-141-280500- ...LAKE AND SUPPLEMENTAL COASTAL OBSERVATIONS... STATION/POSITION TIME TEMP WIND PRES WAVE SWELL AIR SEA DIR/SP/G HT/PER HT/PER/DIR (UTC) (F) (DEG/KT/KT) (MB) (FT/S) (FT/S/D) WINYAH BAY 0300 76 70/ 9 1019.0S LAKE MURRAY 0300 76 100/ 5/ 7 1019.0R ACE BASIN NERRS 0300 70 CALM 1019.0S FORT PULASKI 0400 76 77 60/ 12/ 13 1019.1R SAPELO ISLAND 0400 74 60/ 5 1018.0S $$ ANZ835-935-AMZ111-154-330-350-352-354-370-450-454-472-280500- ...C-MAN AND BUOY OBSERVATIONS... STATION/POSITION TIME TEMP WIND PRES WAVE SWELL AIR SEA DIR/SP/G HT/PER HT/PER/DIR (UTC) (F) (DEG/KT/KT) (MB) (FT/S) (FT/S/D) BUOY 41004 0350 77 76 90/ 10/ 12 1018.2R 4/ 8 3/ 8 BUOY 41008 0350 76 76 60/ 12/ 14 1017.9F 4/ 6 2/120/ 6 FOLLY BEACH CMAN 0400 76 60/ 12/ 13 1019.2F CAPERS NEARSHORE 0308 76 76 70/ 14/ 16 1018.9R FRIPP NEARSHORE 0408 76 76 80/ 14/ 17 1018.1R STATION/POSITION TIME TEMP WIND PRES WAVE SWELL AIR SEA DIR/SP/G HT/PER HT/PER/DIR (UTC) (F) (DEG/KT/KT) (MB) (FT/S) (FT/S/D) 5E ST. MARYS GA 0401 78 N/A 3/ 6 FRYING PAN BUOY 0400 77 76 90/ 10/ 10 1019.1R BUOY 41025 0350 77 78 120/ 10/ 12 1021.0F 3/ 8 3/110/ 8 CAPE LOOKOUT NC 0400 74 90/ 7/ 7 1020.5F BUOY 41002 0350 77 77 90/ 17/ 21 1017.9R 7/ 8 5/120/ 8 BUOY 41010 0320 77 78 20/ 14/ 17 1015.1R ST AUGUSTINE FL 0400 77 80 70/ 12/ 13 1018.0S $$

USA.gov is the U.S. government's official web portal to all federal, state and local government web resources and services.